Weather History for Fitchburg, MA

Change the Weather History Date:

Wednesday, October 23, 2013

  Actual Average (KORH) Record (KORH)
Temperature  
Mean Temperature 42 °F 48 °F  
Max Temperature 52 °F 56 °F 82 °F (1947)
Min Temperature 33 °F 39 °F 22 °F (1969)
Degree Days  
Heating Degree Days 22 17  
Month to date heating degree days 318  
Since 1 July heating degree days 511  
Cooling Degree Days 0 0  
Month to date cooling degree days 0  
Year to date cooling degree days 468  
Moisture  
Dew Point 32 °F    
Average Humidity 64    
Maximum Humidity 92    
Minimum Humidity 40    
Precipitation  
Precipitation 0.00 in 0.14 in 1.91 in (1923)
Month to date precipitation 3.54  
Year to date precipitation 38.83  
Sea Level Pressure  
Sea Level Pressure 29.71 in    
Wind  
Wind Speed 2 mph (NW)    
Max Wind Speed 10 mph    
Max Gust Speed -    
Visibility 10 miles    
Events      
T = Trace of Precipitation, MM = Missing Value Source: NWS Daily Summary

Daily Weather History Graph

Daily Weather History Graph

Search for Another Location

Airport:

Trip Planner

Search our weather history database for the weather conditions in past years. The results will help you decide how hot, cold, wet, or windy it might be!

Date:

Astronomy

Oct. 23, 2013 Rise Set
Actual Time 7:09 AM EDT 5:52 PM EDT
Civil Twilight 6:41 AM EDT 6:20 PM EDT
Nautical Twilight 6:08 AM EDT 6:53 PM EDT
Astronomical Twilight 5:35 AM EDT 7:26 PM EDT
Moon 9:17 PM EDT 11:27 AM EDT
Length of Visible Light 11h 39m
Length of Day
10h 42m
Waning Gibbous, 79% of the Moon is Illuminated
Oct 23
Waning Gibbous
Oct 26
Last Quarter
Nov 3
New
Nov 10
First Quarter
Nov 17
Full

Hourly Weather History & Observations

Time (EDT) Temp. Windchill Dew Point Humidity Pressure Visibility Wind Dir Wind Speed Gust Speed Precip Events Conditions
12:52 AM 39.0 °F - 35.1 °F 86% 29.81 in 10.0 mi Calm Calm - N/A   Clear
1:52 AM 37.9 °F - 33.1 °F 83% 29.82 in 10.0 mi Calm Calm - N/A   Clear
2:52 AM 37.0 °F - 34.0 °F 89% 29.82 in 10.0 mi Calm Calm - N/A   Clear
3:52 AM 33.1 °F - 30.9 °F 92% 29.80 in 10.0 mi Calm Calm - N/A   Clear
4:52 AM 34.0 °F 31.0 °F 32.0 °F 92% 29.79 in 10.0 mi NW 3.5 mph - N/A   Clear
5:52 AM 35.1 °F - 30.9 °F 85% 29.79 in 10.0 mi Calm Calm - N/A   Clear
6:52 AM 35.1 °F - 32.0 °F 89% 29.77 in 10.0 mi Calm Calm - N/A   Clear
7:52 AM 34.0 °F - 30.9 °F 89% 29.79 in 10.0 mi Calm Calm - N/A   Partly Cloudy
8:52 AM 43.0 °F 41.3 °F 34.0 °F 71% 29.79 in 10.0 mi NNW 3.5 mph - N/A   Partly Cloudy
9:52 AM 48.9 °F - 33.1 °F 54% 29.77 in 10.0 mi Variable 3.5 mph - N/A   Clear
10:52 AM 50.0 °F - 30.0 °F 46% 29.75 in 10.0 mi WNW 3.5 mph - N/A   Clear
11:52 AM 51.1 °F - 28.9 °F 43% 29.73 in 10.0 mi West 3.5 mph - N/A   Mostly Cloudy
12:52 PM 51.1 °F - 30.0 °F 44% 29.71 in 10.0 mi Variable 4.6 mph - N/A   Mostly Cloudy
1:52 PM 52.0 °F - 30.0 °F 43% 29.66 in 10.0 mi Calm Calm - N/A   Mostly Cloudy
2:52 PM 52.0 °F - 28.0 °F 40% 29.61 in 10.0 mi Calm Calm - N/A   Clear
3:52 PM 52.0 °F - 28.0 °F 40% 29.62 in 10.0 mi West 5.8 mph - N/A   Clear
4:52 PM 51.1 °F - 28.9 °F 43% 29.61 in 10.0 mi WNW 4.6 mph - N/A   Mostly Cloudy
5:52 PM 50.0 °F - 30.0 °F 46% 29.63 in 10.0 mi WNW 5.8 mph - N/A   Overcast
6:52 PM 46.9 °F - 32.0 °F 56% 29.63 in 10.0 mi North 3.5 mph - N/A   Overcast
7:52 PM 46.0 °F - 35.1 °F 66% 29.64 in 10.0 mi Calm Calm - N/A   Overcast
8:52 PM 46.9 °F - 33.1 °F 59% 29.64 in 10.0 mi NW 5.8 mph - N/A   Overcast
9:52 PM 48.0 °F - 32.0 °F 54% 29.65 in 10.0 mi NW 8.1 mph - N/A   Overcast
10:52 PM 46.9 °F - 32.0 °F 56% 29.66 in 10.0 mi WNW 10.4 mph - N/A   Overcast
11:52 PM 46.9 °F - 33.1 °F 59% 29.67 in 10.0 mi NW 6.9 mph - N/A   Overcast